User: anonymous   Login
Location: Unspecified
(0.0000°N, 0.0000°E)
Time: 13:40:30
(UTC+00:00)
Language:

CZ-11 R/B - Orbit

View from above orbital plane
View from above orbital plane
View from above satellite
View from above satellite

Ground track
Ground track

The orbit data is extracted from the following two-line orbital elements,

1 41847U 16066G   22277.11650266  .00001362  00000-0  21507-3 0  9990
2 41847  98.5400 341.6235 0362223 244.7109 111.6142 14.38751419309978
Epoch (UTC): 04 October 2022 02:47:45
Eccentricity: 0.0362223
inclination: 98.5400°
perigee height: 504 km
apogee height: 1021 km
right ascension of ascending node: 341.6235°
argument of perigee: 244.7109°
revolutions per day: 14.38751419
mean anomaly at epoch: 111.6142°
orbit number at epoch: 30997

The dashed part of the orbit path shows where the satellite is in the earth's shadow,  

DLR